Date,TemperatureHighF,TemperatureAvgF,TemperatureLowF,DewpointHighF,DewpointAvgF,DewpointLowF,HumidityHigh,HumidityAvg,HumidityLow,PressureMaxIn,PressureMinIn,WindSpeedMaxMPH,WindSpeedAvgMPH,GustSpeedMaxMPH,PrecipitationSumIn
2013-3-1,41.3,38.0,34.5,31.0,29.0,26.0,81,70,63,29.97,29.92,15,5,17,0.00
2013-3-2,42.2,36.2,33.1,32.0,27.1,-99.9,89,72,53,30.00,29.89,14,-6,23,0.00
2013-3-3,42.0,33.7,29.0,24.0,18.1,-99.9,70,56,39,30.06,29.96,17,-6,24,0.00
2013-3-4,58.2,43.0,29.3,30.0,21.3,-99.9,71,46,27,30.17,30.02,8,-10,13,0.00
2013-3-5,63.3,50.6,38.5,55.0,41.3,28.0,92,71,48,30.06,29.63,22,5,31,0.33
2013-3-6,38.6,35.3,31.7,31.0,26.5,22.0,92,71,59,30.16,29.82,23,8,32,0.00
2013-3-7,58.7,42.1,30.8,34.0,27.4,-99.9,90,63,36,30.25,30.13,8,-20,15,0.00
2013-3-8,64.6,47.4,32.5,31.0,28.0,25.0,85,52,23,30.30,30.17,5,1,10,0.00
2013-3-9,60.3,51.0,40.6,33.0,28.3,24.0,54,42,31,30.31,30.19,8,2,12,0.00
2013-3-10,66.5,56.9,47.9,43.0,35.4,31.0,61,46,31,30.22,30.07,11,3,13,0.00
2013-3-11,62.2,54.9,51.2,56.0,50.8,43.0,98,86,61,30.07,29.77,9,3,16,1.16
2013-3-12,61.1,50.3,40.2,54.0,37.9,27.0,98,68,28,30.05,29.76,12,5,27,0.05
2013-3-13,51.6,44.4,37.0,33.0,27.0,20.0,78,53,29,30.20,30.05,15,5,27,0.00
2013-3-14,55.5,41.0,29.5,22.0,18.6,10.0,64,43,16,30.34,30.19,10,4,17,0.00
2013-3-15,71.0,54.6,37.9,43.0,35.4,21.0,83,51,33,30.21,29.95,12,3,19,0.00
2013-3-16,75.0,64.2,53.9,45.0,42.5,38.0,66,47,28,29.95,29.81,14,4,20,0.00
2013-3-17,69.7,62.1,52.7,54.0,48.1,42.0,79,61,46,29.95,29.85,9,2,14,0.00
2013-3-18,60.2,48.1,43.3,54.0,45.6,42.0,98,91,69,29.98,29.78,11,4,17,0.21
2013-3-19,63.4,52.2,44.0,46.0,32.4,18.0,99,57,22,30.05,29.87,15,4,17,0.01
2013-3-20,57.2,48.0,40.8,29.0,19.2,12.0,57,34,18,30.10,29.86,11,3,19,0.00
2013-3-21,46.7,39.3,31.3,29.0,14.6,6.0,63,39,23,29.95,29.84,13,6,21,0.00
2013-3-22,50.9,42.5,35.6,32.0,21.8,14.0,56,44,34,30.05,29.95,6,2,9,0.00
2013-3-23,50.6,46.1,41.2,48.0,42.0,32.0,97,86,57,30.02,29.83,8,2,13,0.72
2013-3-24,47.8,46.6,43.1,47.0,45.0,32.0,97,94,66,29.83,29.51,14,4,24,1.00
2013-3-25,42.4,37.1,33.0,33.0,26.1,23.0,77,65,54,30.02,29.64,18,8,27,0.00
2013-3-26,41.1,35.9,31.4,29.0,26.2,24.0,84,69,51,30.25,30.00,12,6,23,0.00
2013-3-27,54.5,41.8,30.3,27.0,24.3,19.0,83,54,29,30.32,30.20,13,4,16,0.00
2013-3-28,62.1,47.3,33.9,31.0,26.1,18.0,78,47,23,30.31,30.19,14,2,26,0.00
2013-3-29,63.7,51.7,38.6,34.0,30.0,23.0,75,46,27,30.32,30.16,7,1,14,0.00
2013-3-30,70.1,57.5,47.7,55.0,42.3,34.0,95,60,35,30.18,29.99,9,2,17,0.26
2013-3-31,65.0,59.4,55.2,59.0,55.5,54.0,97,87,73,30.00,29.82,11,2,13,0.34